This is the latest recevied weather packets stored in our database for station/object EA3DJ-10. If no packets are shown the sender has not sent any weather packets the latest 10 day(s).
| Time | Temp. | Humidity | Pressure | Rain* | Wind** | Luminosity | Snow |
|---|---|---|---|---|---|---|---|
| 1788403240 | 32.78° C | 38% | 1022.6 hPa | - | - | - | - |
| 1788402039 | 35.56° C | 33% | 1022.6 hPa | - | - | - | - |
| 1788400839 | 35° C | 34% | 1022.7 hPa | - | - | - | - |
| 1788399639 | 33.89° C | 36% | 1022.8 hPa | - | - | - | - |
| 1788398439 | 31.11° C | 40% | 1022.8 hPa | - | - | - | - |
| 1788397239 | 31.11° C | 40% | 1022.8 hPa | - | - | - | - |
| 1788396039 | 31.11° C | 40% | 1022.9 hPa | - | - | - | - |
| 1788394839 | 31.11° C | 39% | 1023 hPa | - | - | - | - |
| 1788393639 | 31.11° C | 39% | 1023 hPa | - | - | - | - |
| 1788392439 | 31.11° C | 39% | 1023 hPa | - | - | - | - |
| 1788391238 | 31.11° C | 37% | 1023 hPa | - | - | - | - |
| 1788390038 | 31.11° C | 35% | 1022.8 hPa | - | - | - | - |
| 1788388838 | 30° C | 36% | 1022.9 hPa | - | - | - | - |
| 1788387638 | 31.11° C | 42% | 1023 hPa | - | - | - | - |
| 1788386438 | 30.56° C | 43% | 1023 hPa | - | - | - | - |
| 1788385238 | 30° C | 37% | 1022.8 hPa | - | - | - | - |
| 1788384038 | 31.11° C | 43% | 1022.9 hPa | - | - | - | - |
| 1788382838 | 30° C | 42% | 1022.8 hPa | - | - | - | - |
| 1788381637 | 30.56° C | 40% | 1022.8 hPa | - | - | - | - |
| 1788380437 | 32.22° C | 41% | 1022.8 hPa | - | - | - | - |
| 1788379237 | 28.89° C | 37% | 1022.8 hPa | - | - | - | - |
| 1788378037 | 29.44° C | 46% | 1022.6 hPa | - | - | - | - |
| 1788376836 | 27.78° C | 50% | 1022.5 hPa | - | - | - | - |
| 1788375636 | 26.67° C | 44% | 1022.2 hPa | - | - | - | - |
| 1788374436 | 25.56° C | 56% | 1022.1 hPa | - | - | - | - |
* Rain since midnight (hover to see other rain measurements)
** Current wind speed in m/s (hover to see current wind gust speed)